Terminal Aerodrome Forecast
Issued by NWS

Home | Current Version | Previous Version | Text Only | Print | Product List | Glossary On
Versions: 1 2 3 4 5 6 7 8 9 10 11 12 13 14 15 16 17 18 19 20 21 22 23 24 25 26 27 28
739
FTUS45 KRIW 170525
TAFCOD
TAF
KCOD 170525Z 1706/1806 VRB05KT P6SM SCT060
     FM171000 24010KT P6SM SCT100 BKN200 WS020/28035KT
     FM171400 25014G20KT P6SM FEW070 BKN100 WS015/28040KT
     AMD LTD TO CLD VIS AND WIND=

USA.gov is the U.S. government's official web portal to all federal, state and local government web resources and services.